2018-102N (43843 NORAD) Tracking and Keplerian Element Data

This shows tracking and keplerian element data for the satellite.

Feedback or suggestion? Click here.




ElementValue
Catalog43843
Name2018-102N
Epoch Orbit451
Epoch Day6.12176978
Epoch Year2019
RAAN83.4266
Inclination97.6286
Eccentricity0.00172
Argument of Perigee183.5912
Mean Anonmoly208.6025
Mean Motion15.09502105
Decay Rate8.33E-06
L11 43843U 18102N 19006.12176978 .00000833 00000-0 55901-4 0 9999
L22 43843 97.6286 83.4266 0017200 183.5912 208.6025 15.09502105 4511



Live tracking and technical data element details for 2018-102N (NORAD 43843). 2018-102N can be tracked NOW for your location showing map with azimuth and elevation plus other details from your city location.







IsCatalogInMostPopularTable: catalog: 43843, numindb: 289
Update: records affected: 1



GetName: 43843 2018-102N

Hit Count: updated at: Sun, 11 Jun 2023 00:45:38 GMT